Showing default

FLOCK 4G 25, 62646

Orbit data source: Space-Track

FLOCK 4G 25, 62646 is a payload satellite owned by Planet (US) in SSO that was launched on Tue, 14 Jan 2025 UTC via an FALCON 9 launch vehicle from the Air Force Western Test Range (AFWTR). Payload-class satellites include a variety of spacecraft equipped with specific instruments for various scientific and technological missions. These include communications satellites like Starlink; space stations such as the ISS; scientific satellites like the Hubble; Earth observation satellites from companies like Planet Labs, Umbra, and HawkEye 360; GPS; miniature CubeSats for education and research; and military/defense satellites.

Loading next visibility...
Identifier
62646, 2025-009AP
Orbit
SSO
Country
Flag of USUS
Related business
Manufacturer
Planet
Mission
Operational Commercial Imaging
Bus & Motor
CUBESAT 3U, Unknown motor
Mass
5.7 kg wet, 5.7 kg dry
Launch date (UTC)
2025-01-14 (7 months ago)
Launch vehicle
FALCON 9
Launch site
Air Force Western Test Range (AFWTR)
Object type
Payload
Rocket body
Debris
Shape & HBR
Box + 2 Pan, 0.1 m
Radar Cross Section
0.035 m², Medium (>0.1 m² and < 1m²)

Expand to show TLE details & history
Last TLE update: 20 hours ago

TLE from 20 hours ago
0 FLOCK 4G 25
1 62646U 25009AP  25241.20717743  .00012043  00000-0  52902-3 0  9996
2 62646  97.4273 320.6896 0001507 205.2384 154.8779 15.22067132 34398
Epoch: 2025-08-29T04:58Z
TLE epoch observation values (Epoch: 2025-08-29T04:58:20.129Z)
Latitude
-0.00003°
Longitude
-91.55341°
Altitude
503.638 km
Speed
7.612 km/s
True Right ascension
21h 22m 45s
True Declination
0° 00' 00"
Sunlit
Object was in full shadow at epoch
Visualization orbit readout
Latitude
Unknown
Longitude
Unknown
Altitude
Unknown
Speed
Unknown
Apparent Right ascension
Unknown
Apparent Declination
Unknown
Sunlit
N/A
Visualization observer readout
Local Sidereal Time
16:56:19
Azimuth
Unknown
Elevation
Unknown
Doppler factor
Unknown
Orbital elements
Apogee altitude
497.606 km
Perigee altitude
495.534 km
Semi-major axis
6,874.707 km
Eccentricity
0.00015
Inclination
97.4273°
RAAN
320.6896°
Arg. of periapsis
205.2384°
True anomaly
154.88523°
Mean anomaly
154.8779°
Eccentric anomaly
154.88157°
Mean motion
3.80769 °/min
Orbital period
94.55 mins
BSTAR
0.00052902
Loading maneuver chart data...
Computing Atmospheric mass density...
Loading historical data...
Loading historical data...
Loading historical data...
Loading historical data...
Loading historical data...
Loading historical data...
Loading historical data...

Documentation

Showing up to 5 results
|